CW8633 Weather Reports


Display with metric or nautical units.
time (UTC)temp
F
wind
direction
speed
MPH
gust
MPH
rain 1hr
in
rain 24hr
in
rain mn
in
humidity
%
barometer
mb
20260502130732 36 306 1.0 2.0 0.00 0.00 0.00 81 1019.7
20260502123719 36 306 0.0 3.0 0.00 0.00 0.00 79 1019.6
20260502122747 37 306 2.0 3.0 0.00 0.00 0.00 79 1019.6
20260502121730 37 30 0.0 2.0 0.00 0.00 0.00 79 1019.4
20260502120729 37 30 1.0 3.0 0.00 0.00 0.00 78 1019.4
20260502115727 37 30 0.0 2.0 0.00 0.00 0.00 78 1019.3
20260502114735 37 30 1.0 3.0 0.00 0.00 0.00 77 1019.3
20260502113739 37 29 0.0 2.0 0.00 0.00 0.00 77 1019.4
20260502112746 37 29 0.0 0.0 0.00 0.00 0.00 76 1019.4
20260502111731 38 29 1.0 3.0 0.00 0.00 0.00 75 1019.4
20260502110717 38 29 3.0 4.0 0.00 0.00 0.00 76 1019.4
20260502105728 38 335 3.0 4.0 0.00 0.00 0.00 75 1019.6
20260502104753 38 305 2.0 3.0 0.00 0.00 0.00 75 1019.5
20260502103717 39 302 1.0 2.0 0.00 0.00 0.00 75 1019.6
20260502102727 39 301 0.0 2.0 0.00 0.00 0.00 74 1019.5
20260502101735 40 301 0.0 3.0 0.00 0.00 0.00 73 1019.4
20260502100741 40 57 0.0 0.0 0.00 0.00 0.00 73 1019.3
20260502090720 41 57 2.0 3.0 0.00 0.00 0.00 71 1019.2
20260502070730 44 109 1.0 4.0 0.00 0.00 0.00 65 1019.0
20260502065722 44 109 0.0 3.0 0.00 0.00 0.00 64 1018.9
20260502064724 44 109 3.0 4.0 0.00 0.00 0.00 63 1018.9
20260502063734 44 125 1.0 3.0 0.00 0.00 0.00 65 1018.9
20260502062718 44 125 0.0 4.0 0.00 0.00 0.00 64 1018.9
20260502061723 45 185 1.0 3.0 0.00 0.00 0.00 63 1019.0
20260502060730 45 186 1.0 3.0 0.00 0.00 0.00 63 1018.9
20260502055726 46 185 1.0 3.0 0.00 0.00 0.00 62 1018.9
20260502054739 46 186 1.0 2.0 0.00 0.00 0.00 61 1018.8
20260502053747 46 186 0.0 2.0 0.00 0.00 0.00 59 1018.6
20260502052734 48 186 3.0 6.0 0.00 0.00 0.00 57 1018.5
20260502051741 49 186 0.0 4.0 0.00 0.00 0.00 55 1018.6
20260502050727 49 107 3.0 6.0 0.00 0.00 0.00 53 1018.4
20260502045743 51 248 1.0 9.0 0.00 0.00 0.00 50 1018.4
20260502044731 55 282 3.0 10.0 0.00 0.00 0.00 37 1018.3
20260502043719 55 67 5.0 8.0 0.00 0.00 0.00 37 1018.1
20260502042747 56 69 1.0 5.0 0.00 0.00 0.00 37 1018.2
20260502041718 57 73 5.0 11.0 0.00 0.00 0.00 34 1018.2
20260502040725 57 62 6.0 10.0 0.00 0.00 0.00 33 1018.1
20260502035717 57 78 8.0 11.0 0.00 0.00 0.00 33 1018.0
20260502034723 57 86 4.0 7.0 0.00 0.00 0.00 34 1017.9
20260502033734 58 74 1.0 8.0 0.00 0.00 0.00 35 1017.7
20260502032723 58 90 7.0 9.0 0.00 0.00 0.00 32 1017.6
20260502031748 58 82 7.0 10.0 0.00 0.00 0.00 33 1017.4
20260502030716 58 94 6.0 9.0 0.00 0.00 0.00 34 1017.3
20260502025730 58 78 5.0 9.0 0.00 0.00 0.00 36 1017.2
20260502024721 57 89 6.0 8.0 0.00 0.00 0.00 39 1017.1
20260502023726 58 336 3.0 3.0 0.00 0.00 0.00 43 1017.1
20260502022732 61 336 1.0 3.0 0.00 0.00 0.00 40 1016.9
20260502021724 64 336 2.0 3.0 0.00 0.00 0.00 38 1016.9
20260502020730 66 336 1.0 2.0 0.00 0.00 0.00 35 1016.9
20260502015723 67 336 0.0 2.0 0.00 0.00 0.00 27 1016.8
20260502014730 68 336 1.0 3.0 0.00 0.00 0.00 23 1016.7
20260502013721 68 331 2.0 5.0 0.00 0.00 0.00 23 1016.7
20260502012729 68 331 1.0 5.0 0.00 0.00 0.00 21 1016.7
20260502011735 68 360 2.0 5.0 0.00 0.00 0.00 22 1016.7
20260502010720 68 309 2.0 5.0 0.00 0.00 0.00 21 1016.7
20260502005718 68 325 3.0 6.0 0.00 0.00 0.00 21 1016.7
20260502004726 69 336 2.0 6.0 0.00 0.00 0.00 21 1016.7
20260502003733 69 291 3.0 8.0 0.00 0.00 0.00 22 1016.7
20260502002717 68 322 2.0 4.0 0.00 0.00 0.00 22 1016.8
20260502001743 68 320 2.0 9.0 0.00 0.00 0.00 21 1016.9
20260502000721 68 294 3.0 8.0 0.00 0.00 0.00 23 1016.9
20260501235732 68 258 2.0 9.0 0.00 0.00 0.00 24 1016.9
20260501234719 68 300 1.0 10.0 0.00 0.00 0.00 22 1016.9
20260501233726 68 346 1.0 9.0 0.00 0.00 0.00 24 1017.1
20260501232717 68 360 5.0 9.0 0.00 0.00 0.00 22 1017.1
20260501231724 68 303 2.0 6.0 0.00 0.00 0.00 23 1017.1
20260501230750 68 76 3.0 5.0 0.00 0.00 0.00 23 1017.1
20260501225722 68 304 2.0 9.0 0.00 0.00 0.00 25 1017.2
20260501224728 68 355 4.0 8.0 0.00 0.00 0.00 24 1017.2
20260501223720 67 9 2.0 11.0 0.00 0.00 0.00 23 1017.3
20260501222725 67 355 6.0 11.0 0.00 0.00 0.00 26 1017.5
20260501221734 67 333 3.0 9.0 0.00 0.00 0.00 26 1017.6
20260501220719 66 339 3.0 8.0 0.00 0.00 0.00 26 1017.7
20260501215751 66 284 2.0 11.0 0.00 0.00 0.00 28 1018.0
20260501214716 66 244 3.0 9.0 0.00 0.00 0.00 28 1018.0
20260501213743 66 5 4.0 9.0 0.00 0.00 0.00 27 1018.2
20260501212729 65 227 2.0 6.0 0.00 0.00 0.00 26 1018.4
20260501211717 65 5 4.0 10.0 0.00 0.00 0.00 27 1018.5
20260501210727 66 12 4.0 12.0 0.00 0.00 0.00 28 1018.6
20260501205743 65 277 4.0 8.0 0.00 0.00 0.00 28 1018.5
20260501204729 65 62 2.0 12.0 0.00 0.00 0.00 30 1018.6
20260501203716 65 281 5.0 10.0 0.00 0.00 0.00 29 1018.6
20260501202725 64 293 3.0 10.0 0.00 0.00 0.00 28 1018.7
20260501201732 64 18 3.0 10.0 0.00 0.00 0.00 28 1018.8
20260501200717 64 333 3.0 11.0 0.00 0.00 0.00 30 1018.8
20260501195731 64 5 4.0 9.0 0.00 0.00 0.00 31 1018.9
20260501194721 64 271 3.0 8.0 0.00 0.00 0.00 29 1019.0
20260501193726 63 336 3.0 8.0 0.00 0.00 0.00 29 1019.1
20260501192732 63 319 3.0 8.0 0.00 0.00 0.00 30 1019.1
20260501191716 62 281 4.0 9.0 0.00 0.00 0.00 31 1019.3
20260501190727 61 319 3.0 7.0 0.00 0.00 0.00 32 1019.2
20260501185720 60 318 1.0 8.0 0.00 0.00 0.00 33 1019.4
20260501184728 61 296 3.0 8.0 0.00 0.00 0.00 30 1019.6
20260501183733 60 5 1.0 6.0 0.00 0.00 0.00 31 1019.7
20260501182726 59 304 3.0 8.0 0.00 0.00 0.00 32 1019.7
20260501181733 60 275 3.0 12.0 0.00 0.00 0.00 32 1019.8
20260501180715 59 255 3.0 9.0 0.00 0.00 0.00 32 1019.8
20260501175725 59 355 3.0 6.0 0.00 0.00 0.00 31 1020.0
20260501174731 59 271 2.0 6.0 0.00 0.00 0.00 35 1020.1
20260501173719 59 5 2.0 6.0 0.00 0.00 0.00 34 1020.2
20260501172726 58 360 1.0 5.0 0.00 0.00 0.00 35 1020.3
20260501171751 57 257 1.0 3.0 0.00 0.00 0.00 37 1020.4
20260501170716 55 311 2.0 5.0 0.00 0.00 0.00 35 1020.4
20260501165727 55 180 3.0 5.0 0.00 0.00 0.00 37 1020.4
20260501164718 55 265 2.0 6.0 0.00 0.00 0.00 41 1020.4
20260501163722 55 360 3.0 5.0 0.00 0.00 0.00 41 1020.5
20260501162729 54 336 1.0 4.0 0.00 0.00 0.00 44 1020.5
20260501161715 53 336 1.0 3.0 0.00 0.00 0.00 50 1020.6
20260501160726 52 346 1.0 5.0 0.00 0.00 0.00 55 1020.6
20260501155751 51 319 2.0 4.0 0.00 0.00 0.00 58 1020.6
20260501154715 50 314 3.0 5.0 0.00 0.00 0.00 59 1020.6
20260501153721 49 269 2.0 4.0 0.00 0.00 0.00 62 1020.7
20260501152726 48 229 2.0 5.0 0.00 0.00 0.00 61 1020.7
20260501151717 47 246 2.0 4.0 0.00 0.00 0.00 66 1020.6
20260501150723 46 260 2.0 3.0 0.00 0.00 0.00 68 1020.6
20260501145735 46 284 1.0 3.0 0.00 0.00 0.00 70 1020.6